Powrót do katalogu

YAOGAN-30 E

AktywnyMilitariaVLEO
NORAD 43029·PAYLOAD·🇨🇳 China

Wystrzelony Nov 24, 2017 z Xichang Satellite Launch Center

Loading…

Następne Przeloty (najbliższe 24 godziny)

TLE

ŚwieżeSource: Space-Track

Epoka: Sep 14, 2026, 14:55 UTC

1 43029U 17075B   26257.62205017  .00001779  00000-0  13164-3 0  9995
2 43029  34.9935  84.9678 0004427 300.4681  59.5590 15.03006238480827

Śledź YAOGAN-30 E w czasie rzeczywistym z AllMySat

Download on the App Store